"datetime","temp","dp","rain_mm","uv","solar","mb","wind_mph","gust_mph","windchill","rh"
"2015-05-24 00:00:00",12.4,9.6,0.0,0.0,0,1022.9,0,2,"",83
"2015-05-24 00:01:00",12.4,9.8,0.0,0.0,0,1022.9,1,2,"",84
"2015-05-24 00:02:00",12.4,9.8,0.0,0.0,0,1022.9,1,1,"",84
"2015-05-24 00:03:00",12.4,9.8,0.0,0.0,0,1022.9,0,1,"",84
"2015-05-24 00:04:00",12.4,9.8,0.0,0.0,0,1022.9,0,1,"",84
"2015-05-24 00:05:00",12.4,9.8,0.0,0.0,0,1022.9,0,1,"",84
"2015-05-24 00:06:00",12.4,9.8,0.0,0.0,0,1022.9,0,0,"",84
"2015-05-24 00:07:00",12.4,9.8,0.0,0.0,0,1023.0,0,0,"",84
"2015-05-24 00:08:00",12.4,9.8,0.0,0.0,0,1022.9,0,0,"",84
"2015-05-24 00:09:00",12.4,9.8,0.0,0.0,0,1022.9,0,0,"",84
"2015-05-24 00:10:00",12.4,9.8,0.0,0.0,0,1022.9,0,1,"",84
"2015-05-24 00:11:00",12.4,9.8,0.0,0.0,0,1022.9,1,3,"",84
"2015-05-24 00:12:00",12.4,9.8,0.0,0.0,0,1022.9,1,2,"",84
"2015-05-24 00:13:00",12.4,9.8,0.0,0.0,0,1022.9,1,1,"",84
"2015-05-24 00:14:00",12.4,9.8,0.0,0.0,0,1022.9,0,0,"",84
"2015-05-24 00:15:00",12.4,9.8,0.0,0.0,0,1022.8,0,1,"",84
"2015-05-24 00:16:00",12.4,9.8,0.0,0.0,0,1022.8,0,1,"",84
"2015-05-24 00:17:00",12.4,9.8,0.0,0.0,0,1022.8,0,1,"",84
"2015-05-24 00:18:00",12.4,9.8,0.0,0.0,0,1022.7,0,1,"",84
"2015-05-24 00:19:00",12.4,9.8,0.0,0.0,0,1022.8,0,0,"",84
"2015-05-24 00:20:00",12.4,9.9,0.0,0.0,0,1022.7,0,1,"",85
"2015-05-24 00:21:00",12.4,9.9,0.0,0.0,0,1022.7,0,2,"",85
"2015-05-24 00:22:00",12.4,9.9,0.0,0.0,0,1022.8,0,1,"",85
"2015-05-24 00:23:00",12.3,9.9,0.0,0.0,0,1022.7,0,1,"",85
"2015-05-24 00:24:00",12.3,9.9,0.0,0.0,0,1022.8,0,1,"",85
"2015-05-24 00:25:00",12.3,9.9,0.0,0.0,0,1022.7,0,1,"",85
"2015-05-24 00:26:00",12.3,9.9,0.0,0.0,0,1022.7,0,1,"",85
"2015-05-24 00:27:00",12.3,9.9,0.0,0.0,0,1022.7,0,1,"",85
"2015-05-24 00:28:00",12.3,10.1,0.0,0.0,0,1022.7,1,1,"",86
"2015-05-24 00:29:00",12.3,10.1,0.0,0.0,0,1022.7,0,1,"",86
"2015-05-24 00:30:00",12.3,9.9,0.0,0.0,0,1022.7,1,1,"",85
"2015-05-24 00:31:00",12.3,9.9,0.0,0.0,0,1022.7,0,1,"",85
"2015-05-24 00:32:00",12.3,9.9,0.0,0.0,0,1022.7,0,1,"",85
"2015-05-24 00:33:00",12.3,9.9,0.0,0.0,0,1022.7,0,0,"",85
"2015-05-24 00:34:00",12.3,10.0,0.0,0.0,0,1022.7,0,0,"",86
"2015-05-24 00:35:00",12.3,9.8,0.0,0.0,0,1022.7,0,2,"",85
"2015-05-24 00:36:00",12.3,10.0,0.0,0.0,0,1022.7,0,1,"",86
"2015-05-24 00:37:00",12.3,10.0,0.0,0.0,0,1022.7,0,1,"",86
"2015-05-24 00:38:00",12.3,10.0,0.0,0.0,0,1022.6,0,1,"",86
"2015-05-24 00:39:00",12.3,10.0,0.0,0.0,0,1022.6,0,0,"",86
"2015-05-24 00:40:00",12.3,10.0,0.0,0.0,0,1022.6,0,0,"",86
"2015-05-24 00:41:00",12.3,10.0,0.0,0.0,0,1022.6,0,0,"",86
"2015-05-24 00:42:00",12.3,10.0,0.0,0.0,0,1022.6,0,0,"",86
"2015-05-24 00:43:00",12.2,10.0,0.0,0.0,0,1022.6,0,1,"",86
"2015-05-24 00:44:00",12.2,9.9,0.0,0.0,0,1022.6,0,1,"",86
"2015-05-24 00:45:00",12.2,9.9,0.0,0.0,0,1022.6,1,1,"",86
"2015-05-24 00:46:00",12.2,9.9,0.0,0.0,0,1022.6,0,1,"",86
"2015-05-24 00:47:00",12.2,9.9,0.0,0.0,0,1022.6,0,0,"",86
"2015-05-24 00:48:00",12.2,9.9,0.0,0.0,0,1022.6,0,0,"",86
"2015-05-24 00:49:00",12.2,9.9,0.0,0.0,0,1022.6,0,1,"",86
"2015-05-24 00:50:00",12.2,10.1,0.0,0.0,0,1022.6,0,0,"",87
"2015-05-24 00:51:00",12.2,10.1,0.0,0.0,0,1022.6,0,0,"",87
"2015-05-24 00:52:00",12.2,10.1,0.0,0.0,0,1022.6,0,0,"",87
"2015-05-24 00:53:00",12.2,10.1,0.0,0.0,0,1022.6,0,0,"",87
"2015-05-24 00:54:00",12.1,9.8,0.0,0.0,0,1022.6,0,1,"",86
"2015-05-24 00:55:00",12.1,10.0,0.0,0.0,0,1022.6,0,1,"",87
"2015-05-24 00:56:00",12.1,10.0,0.0,0.0,0,1022.5,0,1,"",87
"2015-05-24 00:57:00",12.1,10.0,0.0,0.0,0,1022.5,0,1,"",87
"2015-05-24 00:58:00",12.1,10.0,0.0,0.0,0,1022.5,0,1,"",87
"2015-05-24 00:59:00",12.1,10.0,0.0,0.0,0,1022.5,0,1,"",87
"2015-05-24 01:00:00",12.1,10.0,0.0,0.0,0,1022.5,1,2,"",87
"2015-05-24 01:01:00",12.1,10.1,0.0,0.0,0,1022.5,1,2,"",88
"2015-05-24 01:02:00",12.1,10.1,0.0,0.0,0,1022.5,1,1,"",88
"2015-05-24 01:03:00",12.1,10.2,0.0,0.0,0,1022.5,0,1,"",88
"2015-05-24 01:04:00",12.1,10.2,0.0,0.0,0,1022.5,0,1,"",88
"2015-05-24 01:05:00",12.1,10.2,0.0,0.0,0,1022.5,1,2,"",88
"2015-05-24 01:06:00",12.2,10.2,0.0,0.0,0,1022.5,1,1,"",88
"2015-05-24 01:07:00",12.2,10.2,0.0,0.0,0,1022.5,0,1,"",88
"2015-05-24 01:08:00",12.2,10.2,0.0,0.0,0,1022.5,0,1,"",88
"2015-05-24 01:09:00",12.2,10.2,0.0,0.0,0,1022.5,0,1,"",88
"2015-05-24 01:10:00",12.2,10.2,0.0,0.0,0,1022.5,0,1,"",88
"2015-05-24 01:11:00",12.2,10.2,0.0,0.0,0,1022.5,0,0,"",88
"2015-05-24 01:12:00",12.2,10.4,0.0,0.0,0,1022.5,0,0,"",89
"2015-05-24 01:13:00",12.2,10.4,0.0,0.0,0,1022.5,0,1,"",89
"2015-05-24 01:14:00",12.2,10.4,0.0,0.0,0,1022.5,0,1,"",89
"2015-05-24 01:15:00",12.2,10.4,0.0,0.0,0,1022.5,0,1,"",89
"2015-05-24 01:16:00",12.2,10.4,0.0,0.0,0,1022.5,1,2,"",89
"2015-05-24 01:17:00",12.2,10.4,0.0,0.0,0,1022.5,1,2,"",89
"2015-05-24 01:18:00",12.2,10.4,0.0,0.0,0,1022.5,1,2,"",89
"2015-05-24 01:19:00",12.2,10.4,0.0,0.0,0,1022.5,0,1,"",89
"2015-05-24 01:20:00",12.2,10.5,0.0,0.0,0,1022.5,0,1,"",89
"2015-05-24 01:21:00",12.2,10.5,0.0,0.0,0,1022.5,0,1,"",89
"2015-05-24 01:22:00",12.2,10.5,0.0,0.0,0,1022.5,0,1,"",89
"2015-05-24 01:23:00",12.2,10.5,0.0,0.0,0,1022.4,0,1,"",89
"2015-05-24 01:24:00",12.2,10.4,0.0,0.0,0,1022.4,0,1,"",89
"2015-05-24 01:25:00",12.2,10.6,0.0,0.0,0,1022.4,1,1,"",90
"2015-05-24 01:26:00",12.2,10.6,0.0,0.0,0,1022.4,0,1,"",90
"2015-05-24 01:27:00",12.2,10.6,0.0,0.0,0,1022.5,0,0,"",90
"2015-05-24 01:28:00",12.2,10.6,0.0,0.0,0,1022.5,0,0,"",90
"2015-05-24 01:29:00",12.2,10.6,0.0,0.0,0,1022.4,0,0,"",90
"2015-05-24 01:30:00",12.2,10.6,0.0,0.0,0,1022.4,0,1,"",90
"2015-05-24 01:31:00",12.2,10.6,0.0,0.0,0,1022.4,0,1,"",90
"2015-05-24 01:32:00",12.2,10.6,0.0,0.0,0,1022.4,0,0,"",90
"2015-05-24 01:33:00",12.1,10.5,0.0,0.0,0,1022.4,0,1,"",90
"2015-05-24 01:34:00",12.1,10.5,0.0,0.0,0,1022.4,0,1,"",90
"2015-05-24 01:35:00",12.1,10.5,0.0,0.0,0,1022.4,0,1,"",90
"2015-05-24 01:36:00",12.1,10.5,0.0,0.0,0,1022.4,0,1,"",90
"2015-05-24 01:37:00",12.1,10.5,0.0,0.0,0,1022.4,0,1,"",90
"2015-05-24 01:38:00",12.1,10.5,0.0,0.0,0,1022.4,0,1,"",90
"2015-05-24 01:39:00",12.1,10.5,0.0,0.0,0,1022.4,0,1,"",90
"2015-05-24 01:40:00",12.1,10.5,0.0,0.0,0,1022.3,0,1,"",90
"2015-05-24 01:41:00",12.1,10.5,0.0,0.0,0,1022.3,0,1,"",90
"2015-05-24 01:42:00",12.1,10.5,0.0,0.0,0,1022.3,0,1,"",90
"2015-05-24 01:43:00",12.1,10.5,0.0,0.0,0,1022.3,1,1,"",90
"2015-05-24 01:44:00",12.1,10.5,0.0,0.0,0,1022.3,0,1,"",90
"2015-05-24 01:45:00",12.0,10.4,0.0,0.0,0,1022.3,1,2,"",90
"2015-05-24 01:46:00",12.0,10.4,0.0,0.0,0,1022.3,0,1,"",90
"2015-05-24 01:47:00",12.0,10.4,0.0,0.0,0,1022.3,0,0,"",90
"2015-05-24 01:48:00",12.0,10.4,0.0,0.0,0,1022.3,0,0,"",90
"2015-05-24 01:49:00",12.0,10.4,0.0,0.0,0,1022.3,0,1,"",90
"2015-05-24 01:50:00",12.0,10.4,0.0,0.0,0,1022.3,0,1,"",90
"2015-05-24 01:51:00",11.9,10.4,0.0,0.0,0,1022.3,0,1,"",91
"2015-05-24 01:52:00",11.9,10.4,0.0,0.0,0,1022.2,0,1,"",91
"2015-05-24 01:53:00",11.9,10.4,0.0,0.0,0,1022.2,1,1,"",91
"2015-05-24 01:54:00",11.9,10.4,0.0,0.0,0,1022.2,1,2,"",91
"2015-05-24 01:55:00",11.9,10.4,0.0,0.0,0,1022.2,1,2,"",91
"2015-05-24 01:56:00",11.9,10.3,0.0,0.0,0,1022.2,0,1,"",90
"2015-05-24 01:57:00",11.9,10.3,0.0,0.0,0,1022.2,1,2,"",90
"2015-05-24 01:58:00",11.9,10.3,0.0,0.0,0,1022.2,1,2,"",90
"2015-05-24 01:59:00",11.8,10.2,0.0,0.0,0,1022.2,1,2,"",90
"2015-05-24 02:00:00",11.8,10.0,0.0,0.0,0,1022.2,1,1,"",89
"2015-05-24 02:01:00",11.8,10.0,0.0,0.0,0,1022.2,0,1,"",89
"2015-05-24 02:02:00",11.8,10.0,0.0,0.0,0,1022.2,0,1,"",89
"2015-05-24 02:03:00",11.7,10.0,0.0,0.0,0,1022.2,0,0,"",89
"2015-05-24 02:04:00",11.7,10.0,0.0,0.0,0,1022.2,0,1,"",89
"2015-05-24 02:05:00",11.7,10.0,0.0,0.0,0,1022.1,0,0,"",89
"2015-05-24 02:06:00",11.7,9.8,0.0,0.0,0,1022.1,0,1,"",88
"2015-05-24 02:07:00",11.7,9.8,0.0,0.0,0,1022.1,0,1,"",88
"2015-05-24 02:08:00",11.7,9.7,0.0,0.0,0,1022.1,0,2,"",88
"2015-05-24 02:09:00",11.7,9.9,0.0,0.0,0,1022.1,1,1,"",89
"2015-05-24 02:10:00",11.7,9.9,0.0,0.0,0,1022.1,0,1,"",89
"2015-05-24 02:11:00",11.7,9.7,0.0,0.0,0,1022.1,0,1,"",88
"2015-05-24 02:12:00",11.6,9.7,0.0,0.0,0,1022.1,0,0,"",88
"2015-05-24 02:13:00",11.6,9.7,0.0,0.0,0,1022.0,0,1,"",88
"2015-05-24 02:14:00",11.6,9.7,0.0,0.0,0,1022.0,0,1,"",88
"2015-05-24 02:15:00",11.6,9.7,0.0,0.0,0,1022.0,0,1,"",88
"2015-05-24 02:16:00",11.6,9.7,0.0,0.0,0,1022.0,0,1,"",88
"2015-05-24 02:17:00",11.6,9.7,0.0,0.0,0,1022.0,0,1,"",88
"2015-05-24 02:18:00",11.6,9.6,0.0,0.0,0,1022.0,0,1,"",88
"2015-05-24 02:19:00",11.6,9.6,0.0,0.0,0,1022.0,1,1,"",88
"2015-05-24 02:20:00",11.6,9.6,0.0,0.0,0,1022.0,0,1,"",88
"2015-05-24 02:21:00",11.6,9.6,0.0,0.0,0,1022.0,0,1,"",88
"2015-05-24 02:22:00",11.6,9.6,0.0,0.0,0,1021.9,0,0,"",88
"2015-05-24 02:23:00",11.5,9.6,0.0,0.0,0,1021.9,0,1,"",88
"2015-05-24 02:24:00",11.5,9.8,0.0,0.0,0,1021.9,0,0,"",89
"2015-05-24 02:25:00",11.5,9.7,0.0,0.0,0,1021.9,0,1,"",89
"2015-05-24 02:26:00",11.5,9.7,0.0,0.0,0,1021.9,0,1,"",89
"2015-05-24 02:27:00",11.5,9.7,0.0,0.0,0,1021.9,0,1,"",89
"2015-05-24 02:28:00",11.4,9.7,0.0,0.0,0,1021.9,0,1,"",89
"2015-05-24 02:29:00",11.4,9.7,0.0,0.0,0,1021.9,0,1,"",89
"2015-05-24 02:30:00",11.5,9.7,0.0,0.0,0,1021.9,0,0,"",89
"2015-05-24 02:31:00",11.4,9.7,0.0,0.0,0,1021.9,0,1,"",89
"2015-05-24 02:32:00",11.4,9.5,0.0,0.0,0,1021.9,0,1,"",88
"2015-05-24 02:33:00",11.4,9.7,0.0,0.0,0,1021.9,0,1,"",89
"2015-05-24 02:34:00",11.4,9.5,0.0,0.0,0,1021.8,0,1,"",88
"2015-05-24 02:35:00",11.4,9.7,0.0,0.0,0,1021.8,0,1,"",89
"2015-05-24 02:36:00",11.4,9.7,0.0,0.0,0,1021.8,0,1,"",89
"2015-05-24 02:37:00",11.4,9.7,0.0,0.0,0,1021.8,0,1,"",89
"2015-05-24 02:38:00",11.4,9.7,0.0,0.0,0,1021.8,0,0,"",89
"2015-05-24 02:39:00",11.4,9.7,0.0,0.0,0,1021.8,0,1,"",89
"2015-05-24 02:40:00",11.4,9.7,0.0,0.0,0,1021.8,0,1,"",89
"2015-05-24 02:41:00",11.4,9.7,0.0,0.0,0,1021.8,0,1,"",89
"2015-05-24 02:42:00",11.2,9.5,0.0,0.0,0,1021.8,0,1,"",89
"2015-05-24 02:43:00",11.2,9.5,0.0,0.0,0,1021.8,0,2,"",89
"2015-05-24 02:44:00",11.2,9.5,0.0,0.0,0,1021.8,1,2,"",89
"2015-05-24 02:45:00",11.2,9.5,0.0,0.0,0,1021.8,0,1,"",89
"2015-05-24 02:46:00",11.2,9.5,0.0,0.0,0,1021.8,0,1,"",89
"2015-05-24 02:47:00",11.2,9.5,0.0,0.0,0,1021.8,0,1,"",89
"2015-05-24 02:48:00",11.2,9.5,0.0,0.0,0,1021.8,0,1,"",89
"2015-05-24 02:49:00",11.2,9.5,0.0,0.0,0,1021.8,0,0,"",89
"2015-05-24 02:50:00",11.2,9.5,0.0,0.0,0,1021.8,0,0,"",89
"2015-05-24 02:51:00",11.2,9.5,0.0,0.0,0,1021.8,0,1,"",89
"2015-05-24 02:52:00",11.2,9.5,0.0,0.0,0,1021.7,1,2,"",89
"2015-05-24 02:53:00",11.2,9.5,0.0,0.0,0,1021.7,1,1,"",89
"2015-05-24 02:54:00",11.2,9.5,0.0,0.0,0,1021.7,0,1,"",89
"2015-05-24 02:55:00",11.3,9.5,0.0,0.0,0,1021.7,0,1,"",89
"2015-05-24 02:56:00",11.3,9.6,0.0,0.0,0,1021.7,0,1,"",89
"2015-05-24 02:57:00",11.3,9.6,0.0,0.0,0,1021.7,0,1,"",89
"2015-05-24 02:58:00",11.3,9.6,0.0,0.0,0,1021.7,0,1,"",89
"2015-05-24 02:59:00",11.3,9.6,0.0,0.0,0,1021.7,0,2,"",89
"2015-05-24 03:00:00",11.3,9.6,0.0,0.0,0,1021.7,1,1,"",89
"2015-05-24 03:01:00",11.3,9.6,0.0,0.0,0,1021.7,0,1,"",89
"2015-05-24 03:02:00",11.3,9.6,0.0,0.0,0,1021.7,0,0,"",89
"2015-05-24 03:03:00",11.3,9.6,0.0,0.0,0,1021.7,0,0,"",89
"2015-05-24 03:04:00",11.3,9.6,0.0,0.0,0,1021.7,0,1,"",89
"2015-05-24 03:05:00",11.3,9.5,0.0,0.0,0,1021.7,0,0,"",89
"2015-05-24 03:06:00",11.3,9.5,0.0,0.0,0,1021.6,0,1,"",89
"2015-05-24 03:07:00",11.3,9.5,0.0,0.0,0,1021.6,0,0,"",89
"2015-05-24 03:08:00",11.3,9.5,0.0,0.0,0,1021.6,0,0,"",89
"2015-05-24 03:09:00",11.3,9.5,0.0,0.0,0,1021.6,0,1,"",89
"2015-05-24 03:10:00",11.2,9.5,0.0,0.0,0,1021.6,0,1,"",89
"2015-05-24 03:11:00",11.2,9.3,0.0,0.0,0,1021.6,0,2,"",88
"2015-05-24 03:12:00",11.2,9.5,0.0,0.0,0,1021.6,1,2,"",89
"2015-05-24 03:13:00",11.2,9.5,0.0,0.0,0,1021.5,1,2,"",89
"2015-05-24 03:14:00",11.2,9.5,0.0,0.0,0,1021.5,1,2,"",89
"2015-05-24 03:15:00",11.2,9.3,0.0,0.0,0,1021.5,1,2,"",88
"2015-05-24 03:16:00",11.2,9.3,0.0,0.0,0,1021.6,1,1,"",88
"2015-05-24 03:17:00",11.2,9.4,0.0,0.0,0,1021.6,0,1,"",89
"2015-05-24 03:18:00",11.2,9.4,0.0,0.0,0,1021.5,0,1,"",89
"2015-05-24 03:19:00",11.2,9.4,0.0,0.0,0,1021.6,0,1,"",89
"2015-05-24 03:20:00",11.2,9.4,0.0,0.0,0,1021.5,0,2,"",89
"2015-05-24 03:21:00",11.2,9.4,0.0,0.0,0,1021.5,1,1,"",89
"2015-05-24 03:22:00",11.2,9.4,0.0,0.0,0,1021.5,0,1,"",89
"2015-05-24 03:23:00",11.1,9.4,0.0,0.0,0,1021.5,0,0,"",89
"2015-05-24 03:24:00",11.1,9.4,0.0,0.0,0,1021.5,0,1,"",89
"2015-05-24 03:25:00",11.1,9.4,0.0,0.0,0,1021.5,0,0,"",89
"2015-05-24 03:26:00",11.1,9.4,0.0,0.0,0,1021.5,0,1,"",89
"2015-05-24 03:27:00",11.1,9.4,0.0,0.0,0,1021.5,0,1,"",89
"2015-05-24 03:28:00",11.1,9.4,0.0,0.0,0,1021.5,0,1,"",89
"2015-05-24 03:29:00",11.1,9.3,0.0,0.0,0,1021.5,0,3,"",89
"2015-05-24 03:30:00",11.1,9.3,0.0,0.0,0,1021.4,1,2,"",89
"2015-05-24 03:31:00",11.1,9.4,0.0,0.0,0,1021.4,1,2,"",89
"2015-05-24 03:32:00",11.1,9.4,0.0,0.0,0,1021.4,1,1,"",89
"2015-05-24 03:33:00",11.1,9.3,0.0,0.0,0,1021.4,0,3,"",89
"2015-05-24 03:34:00",11.1,9.3,0.0,0.0,0,1021.4,2,3,"",89
"2015-05-24 03:35:00",11.1,9.3,0.0,0.0,0,1021.4,1,2,"",89
"2015-05-24 03:36:00",11.1,9.3,0.0,0.0,0,1021.4,0,0,"",89
"2015-05-24 03:37:00",11.1,9.3,0.0,0.0,0,1021.3,0,1,"",89
"2015-05-24 03:38:00",11.1,9.3,0.0,0.0,0,1021.4,0,1,"",89
"2015-05-24 03:39:00",11.1,9.3,0.0,0.0,0,1021.3,0,1,"",89
"2015-05-24 03:40:00",11.1,9.3,0.0,0.0,0,1021.3,1,2,"",89
"2015-05-24 03:41:00",11.1,9.3,0.0,0.0,0,1021.3,1,2,"",89
"2015-05-24 03:42:00",11.1,9.3,0.0,0.0,0,1021.2,1,2,"",89
"2015-05-24 03:43:00",11.1,9.3,0.0,0.0,0,1021.3,1,1,"",89
"2015-05-24 03:44:00",11.1,9.3,0.0,0.0,0,1021.3,0,1,"",89
"2015-05-24 03:45:00",11.1,9.5,0.0,0.0,0,1021.3,0,1,"",90
"2015-05-24 03:46:00",11.1,9.5,0.0,0.0,0,1021.3,0,1,"",90
"2015-05-24 03:47:00",11.1,9.5,0.0,0.0,0,1021.2,1,1,"",90
"2015-05-24 03:48:00",11.1,9.5,0.0,0.0,0,1021.2,0,1,"",90
"2015-05-24 03:49:00",11.1,9.5,0.0,0.0,0,1021.2,0,1,"",90
"2015-05-24 03:50:00",11.1,9.5,0.0,0.0,0,1021.2,0,1,"",90
"2015-05-24 03:51:00",11.0,9.4,0.0,0.0,0,1021.2,0,2,"",90
"2015-05-24 03:52:00",11.0,9.4,0.0,0.0,0,1021.2,1,1,"",90
"2015-05-24 03:53:00",11.0,9.4,0.0,0.0,0,1021.2,0,1,"",90
"2015-05-24 03:54:00",11.0,9.4,0.0,0.0,0,1021.2,0,2,"",90
"2015-05-24 03:55:00",11.0,9.4,0.0,0.0,0,1021.2,1,1,"",90
"2015-05-24 03:56:00",11.0,9.4,0.0,0.0,0,1021.2,0,1,"",90
"2015-05-24 03:57:00",11.0,9.4,0.0,0.0,0,1021.1,0,1,"",90
"2015-05-24 03:58:00",11.0,9.4,0.0,0.0,0,1021.1,1,2,"",90
"2015-05-24 03:59:00",11.0,9.4,0.0,0.0,0,1021.1,1,2,"",90
"2015-05-24 04:00:00",11.0,9.4,0.0,0.0,0,1021.1,1,2,"",90
"2015-05-24 04:01:00",11.0,9.4,0.0,0.0,0,1021.1,0,1,"",90
"2015-05-24 04:02:00",11.0,9.4,0.0,0.0,0,1021.1,0,1,"",90
"2015-05-24 04:03:00",11.0,9.4,0.0,0.0,0,1021.1,0,1,"",90
"2015-05-24 04:04:00",11.0,9.4,0.0,0.0,0,1021.1,0,1,"",90
"2015-05-24 04:05:00",10.9,9.4,0.0,0.0,0,1021.1,1,3,"",90
"2015-05-24 04:06:00",10.9,9.4,0.0,0.0,0,1021.1,1,1,"",90
"2015-05-24 04:07:00",10.9,9.4,0.0,0.0,0,1021.0,0,0,"",90
"2015-05-24 04:08:00",10.9,9.4,0.0,0.0,0,1021.0,0,1,"",90
"2015-05-24 04:09:00",10.9,9.4,0.0,0.0,0,1021.1,0,1,"",90
"2015-05-24 04:10:00",10.9,9.4,0.0,0.0,0,1021.0,0,1,"",90
"2015-05-24 04:11:00",10.9,9.5,0.0,0.0,0,1021.0,1,1,"",91
"2015-05-24 04:12:00",10.9,9.5,0.0,0.0,0,1021.0,1,1,"",91
"2015-05-24 04:13:00",10.9,9.5,0.0,0.0,0,1021.0,0,2,"",91
"2015-05-24 04:14:00",10.9,9.5,0.0,0.0,0,1021.0,1,2,"",91
"2015-05-24 04:15:00",10.9,9.5,0.0,0.0,0,1021.0,1,2,"",91
"2015-05-24 04:16:00",10.9,9.5,0.0,0.0,0,1021.0,1,1,"",91
"2015-05-24 04:17:00",10.9,9.5,0.0,0.0,0,1020.9,0,1,"",91
"2015-05-24 04:18:00",10.9,9.5,0.0,0.0,0,1021.0,1,1,"",91
"2015-05-24 04:19:00",10.9,9.5,0.0,0.0,0,1021.0,1,1,"",91
"2015-05-24 04:20:00",10.9,9.5,0.0,0.0,0,1021.0,0,1,"",91
"2015-05-24 04:21:00",10.9,9.5,0.0,0.0,0,1020.9,0,1,"",91
"2015-05-24 04:22:00",10.9,9.5,0.0,0.0,0,1020.9,0,1,"",91
"2015-05-24 04:23:00",10.9,9.5,0.0,0.0,0,1021.0,0,1,"",91
"2015-05-24 04:24:00",10.9,9.5,0.0,0.0,0,1020.9,0,1,"",91
"2015-05-24 04:25:00",10.9,9.5,0.0,0.0,0,1020.9,1,2,"",91
"2015-05-24 04:26:00",10.8,9.4,0.0,0.0,0,1020.9,1,2,"",91
"2015-05-24 04:27:00",10.8,9.4,0.0,0.0,0,1020.9,1,1,"",91
"2015-05-24 04:28:00",10.8,9.4,0.0,0.0,0,1020.9,0,1,"",91
"2015-05-24 04:29:00",10.8,9.4,0.0,0.0,0,1020.9,0,1,"",91
"2015-05-24 04:30:00",10.8,9.4,0.0,0.0,0,1020.9,0,1,"",91
"2015-05-24 04:31:00",10.8,9.4,0.0,0.0,0,1020.9,1,2,"",91
"2015-05-24 04:32:00",10.8,9.4,0.0,0.0,0,1020.8,1,1,"",91
"2015-05-24 04:33:00",10.8,9.4,0.0,0.0,0,1020.9,1,2,"",91
"2015-05-24 04:34:00",10.8,9.4,0.0,0.0,0,1020.8,1,1,"",91
"2015-05-24 04:35:00",10.8,9.4,0.0,0.0,0,1020.9,1,1,"",91
"2015-05-24 04:36:00",10.8,9.4,0.0,0.0,0,1020.9,1,1,"",91
"2015-05-24 04:37:00",10.8,9.4,0.0,0.0,0,1020.8,1,1,"",91
"2015-05-24 04:38:00",10.8,9.4,0.0,0.0,0,1020.9,0,1,"",91
"2015-05-24 04:39:00",10.7,9.3,0.0,0.0,0,1020.9,0,1,"",91
"2015-05-24 04:40:00",10.7,9.3,0.0,0.0,0,1020.9,0,1,"",91
"2015-05-24 04:41:00",10.7,9.3,0.0,0.0,0,1020.9,0,1,"",91
"2015-05-24 04:42:00",10.7,9.3,0.0,0.0,0,1020.9,0,1,"",91
"2015-05-24 04:43:00",10.7,9.3,0.0,0.0,0,1020.9,0,1,"",91
"2015-05-24 04:44:00",10.7,9.3,0.0,0.0,0,1020.9,0,1,"",91
"2015-05-24 04:45:00",10.7,9.3,0.0,0.0,0,1020.9,1,1,"",91
"2015-05-24 04:46:00",10.7,9.3,0.0,0.0,0,1020.9,1,1,"",91
"2015-05-24 04:47:00",10.7,9.3,0.0,0.0,0,1020.9,0,1,"",91
"2015-05-24 04:48:00",10.7,9.3,0.0,0.0,0,1020.9,0,1,"",91
"2015-05-24 04:49:00",10.7,9.3,0.0,0.0,0,1020.8,0,1,"",91
"2015-05-24 04:50:00",10.7,9.3,0.0,0.0,0,1020.8,1,2,"",91
"2015-05-24 04:51:00",10.7,9.3,0.0,0.0,0,1020.8,1,2,"",91
"2015-05-24 04:52:00",10.7,9.3,0.0,0.0,0,1020.8,0,1,"",91
"2015-05-24 04:53:00",10.7,9.3,0.0,0.0,0,1020.8,0,2,"",91
"2015-05-24 04:54:00",10.7,9.2,0.0,0.0,0,1020.8,0,1,"",90
"2015-05-24 04:55:00",10.6,9.2,0.0,0.0,0,1020.8,0,1,"",91
"2015-05-24 04:56:00",10.6,9.2,0.0,0.0,0,1020.8,0,1,"",91
"2015-05-24 04:57:00",10.6,9.2,0.0,0.0,0,1020.8,0,3,"",91
"2015-05-24 04:58:00",10.6,9.2,0.0,0.0,0,1020.8,1,2,"",91
"2015-05-24 04:59:00",10.6,9.1,0.0,0.0,0,1020.8,1,2,"",90
"2015-05-24 05:00:00",10.6,9.1,0.0,0.0,0,1020.7,1,2,"",90
"2015-05-24 05:01:00",10.6,9.3,0.0,0.0,0,1020.8,0,1,"",92
"2015-05-24 05:02:00",10.6,9.3,0.0,0.0,0,1020.8,0,1,"",92
"2015-05-24 05:03:00",10.6,9.3,0.0,0.0,0,1020.8,0,1,"",92
"2015-05-24 05:04:00",10.6,9.3,0.0,0.0,0,1020.7,0,1,"",92
"2015-05-24 05:05:00",10.6,9.3,0.0,0.0,0,1020.7,0,1,"",92
"2015-05-24 05:06:00",10.5,9.3,0.0,0.0,0,1020.7,0,1,"",92
"2015-05-24 05:07:00",10.5,9.3,0.0,0.0,0,1020.7,0,1,"",92
"2015-05-24 05:08:00",10.5,9.3,0.0,0.0,0,1020.7,0,0,"",92
"2015-05-24 05:09:00",10.5,9.3,0.0,0.0,0,1020.7,0,1,"",92
"2015-05-24 05:10:00",10.5,9.3,0.0,0.0,0,1020.7,0,1,"",92
"2015-05-24 05:11:00",10.5,9.2,0.0,0.0,0,1020.7,0,1,"",92
"2015-05-24 05:12:00",10.5,9.2,0.0,0.0,0,1020.7,0,1,"",92
"2015-05-24 05:13:00",10.4,9.2,0.0,0.0,0,1020.7,0,1,"",92
"2015-05-24 05:14:00",10.4,9.2,0.0,0.0,0,1020.7,0,0,"",92
"2015-05-24 05:15:00",10.4,9.2,0.0,0.0,5,1020.7,0,0,"",92
"2015-05-24 05:16:00",10.4,9.2,0.0,0.0,5,1020.7,0,1,"",92
"2015-05-24 05:17:00",10.4,9.2,0.0,0.0,5,1020.7,1,2,"",92
"2015-05-24 05:18:00",10.4,9.2,0.0,0.0,5,1020.7,1,1,"",92
"2015-05-24 05:19:00",10.4,9.2,0.0,0.0,5,1020.7,0,1,"",92
"2015-05-24 05:20:00",10.4,9.2,0.0,0.0,5,1020.7,0,1,"",92
"2015-05-24 05:21:00",10.4,9.2,0.0,0.0,5,1020.7,0,0,"",92
"2015-05-24 05:22:00",10.4,9.2,0.0,0.0,7,1020.7,0,2,"",92
"2015-05-24 05:23:00",10.4,9.2,0.0,0.0,7,1020.6,1,2,"",92
"2015-05-24 05:24:00",10.4,9.2,0.0,0.0,7,1020.6,0,2,"",92
"2015-05-24 05:25:00",10.4,9.2,0.0,0.0,7,1020.7,1,2,"",92
"2015-05-24 05:26:00",10.4,9.2,0.0,0.0,7,1020.6,1,1,"",92
"2015-05-24 05:27:00",10.4,9.2,0.0,0.0,7,1020.6,1,1,"",92
"2015-05-24 05:28:00",10.5,9.2,0.0,0.0,7,1020.5,1,3,"",92
"2015-05-24 05:29:00",10.5,9.2,0.0,0.0,9,1020.5,2,3,"",92
"2015-05-24 05:30:00",10.5,9.2,0.0,0.0,9,1020.5,1,2,"",92
"2015-05-24 05:31:00",10.5,9.2,0.0,0.0,9,1020.5,1,2,"",92
"2015-05-24 05:32:00",10.5,9.2,0.0,0.0,9,1020.5,1,2,"",92
"2015-05-24 05:33:00",10.5,9.2,0.0,0.0,9,1020.5,0,1,"",92
"2015-05-24 05:34:00",10.4,9.2,0.0,0.0,9,1020.6,0,2,"",92
"2015-05-24 05:35:00",10.5,9.1,0.0,0.0,9,1020.6,1,1,"",91
"2015-05-24 05:36:00",10.5,9.0,0.0,0.0,9,1020.6,0,2,"",90
"2015-05-24 05:37:00",10.4,9.0,0.0,0.0,9,1020.6,0,2,"",91
"2015-05-24 05:38:00",10.5,9.1,0.0,0.0,9,1020.6,0,1,"",91
"2015-05-24 05:39:00",10.4,9.0,0.0,0.0,9,1020.6,0,1,"",91
"2015-05-24 05:40:00",10.4,9.0,0.0,0.0,11,1020.6,0,1,"",91
"2015-05-24 05:41:00",10.4,9.0,0.0,0.0,11,1020.7,0,1,"",91
"2015-05-24 05:42:00",10.4,9.0,0.0,0.0,12,1020.7,0,1,"",91
"2015-05-24 05:43:00",10.4,9.0,0.0,0.0,14,1020.7,0,0,"",91
"2015-05-24 05:44:00",10.4,9.0,0.0,0.0,16,1020.7,0,2,"",91
"2015-05-24 05:45:00",10.4,9.0,0.0,0.0,16,1020.6,1,2,"",91
"2015-05-24 05:46:00",10.4,9.0,0.0,0.0,16,1020.7,1,1,"",91
"2015-05-24 05:47:00",10.4,9.0,0.0,0.0,18,1020.7,0,1,"",91
"2015-05-24 05:48:00",10.4,9.0,0.0,0.0,14,1020.7,0,0,"",91
"2015-05-24 05:49:00",10.4,9.0,0.0,0.0,14,1020.7,0,1,"",91
"2015-05-24 05:50:00",10.4,9.0,0.0,0.0,14,1020.6,0,1,"",91
"2015-05-24 05:51:00",10.4,9.0,0.0,0.0,14,1020.6,0,0,"",91
"2015-05-24 05:52:00",10.4,9.0,0.0,0.0,14,1020.7,0,0,"",91
"2015-05-24 05:53:00",10.4,9.0,0.0,0.0,14,1020.7,0,0,"",91
"2015-05-24 05:54:00",10.4,9.0,0.0,0.0,16,1020.7,0,1,"",91
"2015-05-24 05:55:00",10.4,9.0,0.0,0.0,16,1020.7,0,1,"",91
"2015-05-24 05:56:00",10.4,9.0,0.0,0.0,16,1020.7,0,2,"",91
"2015-05-24 05:57:00",10.4,9.0,0.0,0.0,18,1020.6,1,1,"",91
"2015-05-24 05:58:00",10.4,9.0,0.0,0.0,19,1020.6,1,1,"",91
"2015-05-24 05:59:00",10.4,9.0,0.0,0.0,21,1020.7,1,1,"",91
"2015-05-24 06:00:00",10.3,8.9,0.0,0.0,23,1020.7,1,1,"",91
"2015-05-24 06:01:00",10.3,8.9,0.0,0.0,23,1020.7,0,1,"",91
"2015-05-24 06:02:00",10.3,8.9,0.0,0.0,21,1020.6,0,1,"",91
"2015-05-24 06:03:00",10.3,8.9,0.0,0.0,21,1020.7,0,1,"",91
"2015-05-24 06:04:00",10.3,8.9,0.0,0.0,21,1020.6,1,1,"",91
"2015-05-24 06:05:00",10.3,8.9,0.0,0.0,23,1020.6,0,1,"",91
"2015-05-24 06:06:00",10.3,8.9,0.0,0.0,25,1020.6,1,1,"",91
"2015-05-24 06:07:00",10.3,8.9,0.0,0.0,25,1020.6,1,2,"",91
"2015-05-24 06:08:00",10.3,8.9,0.0,0.0,25,1020.7,1,1,"",91
"2015-05-24 06:09:00",10.3,8.9,0.0,0.0,26,1020.7,0,1,"",91
"2015-05-24 06:10:00",10.3,8.9,0.0,0.0,28,1020.7,0,2,"",91
"2015-05-24 06:11:00",10.3,8.9,0.0,0.0,32,1020.6,1,2,"",91
"2015-05-24 06:12:00",10.3,8.9,0.0,0.0,33,1020.6,1,2,"",91
"2015-05-24 06:13:00",10.3,8.9,0.0,0.0,33,1020.6,1,2,"",91
"2015-05-24 06:14:00",10.3,8.9,0.0,0.0,35,1020.6,1,2,"",91
"2015-05-24 06:15:00",10.3,8.9,0.0,0.0,39,1020.5,1,2,"",91
"2015-05-24 06:16:00",10.3,8.9,0.0,0.0,40,1020.5,1,2,"",91
"2015-05-24 06:17:00",10.3,8.9,0.0,0.0,47,1020.5,1,3,"",91
"2015-05-24 06:18:00",10.3,8.9,0.0,0.0,51,1020.6,1,2,"",91
"2015-05-24 06:19:00",10.3,8.9,0.0,0.0,53,1020.6,1,2,"",91
"2015-05-24 06:20:00",10.3,8.8,0.0,0.0,56,1020.6,1,2,"",90
"2015-05-24 06:21:00",10.3,8.8,0.0,0.0,58,1020.6,0,1,"",90
"2015-05-24 06:22:00",10.2,8.8,0.0,0.0,62,1020.6,0,1,"",91
"2015-05-24 06:23:00",10.2,8.8,0.0,0.0,60,1020.6,1,3,"",91
"2015-05-24 06:24:00",10.2,8.8,0.0,0.0,56,1020.6,1,2,"",91
"2015-05-24 06:25:00",10.2,8.8,0.0,0.0,53,1020.6,1,2,"",91
"2015-05-24 06:26:00",10.2,8.8,0.0,0.0,49,1020.6,1,1,"",91
"2015-05-24 06:27:00",10.2,8.8,0.0,0.0,47,1020.6,1,2,"",91
"2015-05-24 06:28:00",10.2,8.8,0.0,0.0,44,1020.5,1,2,"",91
"2015-05-24 06:29:00",10.2,8.8,0.0,0.0,40,1020.5,1,2,"",91
"2015-05-24 06:30:00",10.3,8.9,0.0,0.0,40,1020.5,1,2,"",91
"2015-05-24 06:31:00",10.2,8.8,0.0,0.0,40,1020.6,1,1,"",91
"2015-05-24 06:32:00",10.2,8.8,0.0,0.0,39,1020.6,0,1,"",91
"2015-05-24 06:33:00",10.3,8.9,0.0,0.0,35,1020.6,0,2,"",91
"2015-05-24 06:34:00",10.3,8.9,0.0,0.0,39,1020.6,1,3,"",91
"2015-05-24 06:35:00",10.3,9.0,0.0,0.0,37,1020.6,1,3,"",92
"2015-05-24 06:36:00",10.3,9.0,0.0,0.0,37,1020.5,1,1,"",92
"2015-05-24 06:37:00",10.3,9.0,0.0,0.0,35,1020.6,0,1,"",92
"2015-05-24 06:38:00",10.3,9.0,0.0,0.0,37,1020.6,0,2,"",92
"2015-05-24 06:39:00",10.3,9.0,0.0,0.0,39,1020.6,1,2,"",92
"2015-05-24 06:40:00",10.3,9.0,0.0,0.0,37,1020.5,1,2,"",92
"2015-05-24 06:41:00",10.3,9.1,0.0,0.0,42,1020.5,1,2,"",92
"2015-05-24 06:42:00",10.3,9.1,0.0,0.0,46,1020.6,1,2,"",92
"2015-05-24 06:43:00",10.3,9.1,0.0,0.0,49,1020.6,1,2,"",92
"2015-05-24 06:44:00",10.3,9.1,0.0,0.0,53,1020.5,1,2,"",92
"2015-05-24 06:45:00",10.3,9.1,0.0,0.0,53,1020.5,1,2,"",92
"2015-05-24 06:46:00",10.3,9.1,0.0,0.0,56,1020.5,1,1,"",92
"2015-05-24 06:47:00",10.4,9.1,0.0,0.0,56,1020.5,1,2,"",92
"2015-05-24 06:48:00",10.4,9.1,0.0,0.0,54,1020.5,1,2,"",92